Weather History for Manning, SC

Change the Weather History Date:

Thursday, January 10, 2013

  Actual Average (KCKI) Record (KCKI)
Temperature  
Mean Temperature 63 °F -  
Max Temperature 75 °F 52 °F 73 °F (2013)
Min Temperature 51 °F 30 °F 30 °F (2011)
Degree Days  
Heating Degree Days 2    
Growing Degree Days 13 (Base 50)    
Moisture  
Dew Point 39 °F    
Average Humidity 54    
Maximum Humidity 88    
Minimum Humidity 7    
Precipitation  
Precipitation 0.07 in - - ()
Sea Level Pressure  
Sea Level Pressure 30.41 in    
Wind  
Wind Speed 2 mph (ENE)    
Max Wind Speed 9 mph    
Max Gust Speed -    
Visibility 8 miles    
Events      
Averages and records for this station are not official NWS values.
T = Trace of Precipitation, MM = Missing Value Source: NWS Daily Summary

Daily Weather History Graph

Daily Weather History Graph

Search for Another Location

Airport:

Trip Planner

Search our weather history database for the weather conditions in past years. The results will help you decide how hot, cold, wet, or windy it might be!

Date:

Astronomy

Jan. 10, 2013 Rise Set
Actual Time 7:25 AM EST 5:31 PM EST
Civil Twilight 6:58 AM EST 5:58 PM EST
Nautical Twilight 6:27 AM EST 6:29 PM EST
Astronomical Twilight 5:57 AM EST 6:59 PM EST
Moon 6:04 AM EST (1/10) 4:36 PM EST (1/10)
Length of Visible Light 10h 59m
Length of Day
10h 05m
Waning Crescent, 2% of the Moon is Illuminated
Jan 10
Waning Crescent
Jan 11
New
Jan 18
First Quarter
Jan 26
Full
Feb 3
Last Quarter

Hourly Weather History & Observations

Time (EST) Temp. Dew Point Humidity Pressure Visibility Wind Dir Wind Speed Gust Speed Precip Events Conditions
12:15 AM 53.6 °F 50.0 °F 88% 30.41 in 7.0 mi Calm Calm - N/A   Clear
12:35 AM 53.6 °F 46.4 °F 77% 30.41 in 7.0 mi Calm Calm - N/A   Clear
12:55 AM 51.8 °F 44.6 °F 76% 30.41 in 7.0 mi Calm Calm - N/A   Clear
1:15 AM 51.8 °F 42.8 °F 71% 30.41 in 7.0 mi Calm Calm - N/A   Clear
1:35 AM 51.8 °F 37.4 °F 58% 30.42 in 7.0 mi North 5.8 mph - N/A   Clear
1:55 AM 53.6 °F 44.6 °F 72% 30.42 in 7.0 mi Calm Calm - N/A   Scattered Clouds
3:15 AM 51.8 °F 46.4 °F 82% 30.42 in 5.0 mi Calm Calm - N/A   Clear
3:35 AM 51.8 °F 44.6 °F 76% 30.42 in 5.0 mi Calm Calm - N/A   Clear
3:55 AM 51.8 °F 46.4 °F 82% 30.41 in 7.0 mi Calm Calm - N/A   Clear
4:15 AM 51.8 °F 44.6 °F 76% 30.41 in 5.0 mi Calm Calm - N/A   Clear
4:35 AM 51.8 °F 46.4 °F 82% 30.41 in 7.0 mi Calm Calm - N/A   Clear
4:55 AM 51.8 °F 46.4 °F 82% 30.41 in 7.0 mi Calm Calm - N/A   Clear
5:15 AM 51.8 °F 44.6 °F 76% 30.40 in 7.0 mi Calm Calm - N/A   Clear
5:35 AM 51.8 °F 46.4 °F 82% 30.41 in 7.0 mi Calm Calm - N/A   Clear
5:55 AM 51.8 °F 46.4 °F 82% 30.41 in 7.0 mi Calm Calm - N/A   Clear
6:35 AM 51.8 °F 46.4 °F 82% 30.42 in 7.0 mi Calm Calm - N/A   Clear
6:55 AM 53.6 °F 48.2 °F 82% 30.43 in 7.0 mi Calm Calm - N/A   Clear
7:15 AM 53.6 °F 50.0 °F 88% 30.44 in 10.0 mi NNE 3.5 mph - N/A   Clear
7:35 AM 55.4 °F 50.0 °F 82% 30.45 in 10.0 mi Calm Calm - N/A   Clear
7:55 AM 55.4 °F 51.8 °F 88% 30.45 in 10.0 mi NE 3.5 mph - N/A   Clear
8:35 AM 57.2 °F 51.8 °F 82% 30.46 in 10.0 mi NE 3.5 mph - N/A   Clear
8:55 AM 59.0 °F 51.8 °F 77% 30.46 in 10.0 mi NE 5.8 mph - N/A   Clear
9:15 AM 60.8 °F 51.8 °F 72% 30.46 in 10.0 mi NE 3.5 mph - N/A   Clear
9:35 AM 60.8 °F 50.0 °F 68% 30.47 in 10.0 mi NE 3.5 mph - N/A   Clear
9:55 AM 62.6 °F 50.0 °F 63% 30.47 in 10.0 mi NE 3.5 mph - N/A   Clear
10:15 AM 64.4 °F 46.4 °F 52% 30.46 in 10.0 mi NE 5.8 mph - N/A   Clear
10:35 AM 68.0 °F 50.0 °F 52% 30.45 in 10.0 mi NE 6.9 mph - N/A   Clear
10:55 AM 69.8 °F 48.2 °F 46% 30.45 in 10.0 mi NE 6.9 mph - N/A   Clear
11:15 AM 71.6 °F 48.2 °F 43% 30.44 in 10.0 mi NE 6.9 mph - N/A   Clear
11:35 AM 71.6 °F 51.8 °F 50% 30.43 in 10.0 mi ENE 6.9 mph - N/A   Clear
11:55 AM 73.4 °F 51.8 °F 47% 30.41 in 10.0 mi ENE 9.2 mph - N/A   Clear
12:15 PM 73.4 °F 44.6 °F 36% 30.41 in 10.0 mi East 6.9 mph - N/A   Clear
1:15 PM 73.4 °F 8.6 °F 8% 30.39 in 10.0 mi East 9.2 mph - N/A   Overcast
1:35 PM 73.4 °F 30.2 °F 20% 30.39 in 10.0 mi East 4.6 mph - N/A   Overcast
1:55 PM 73.4 °F 19.4 °F 13% 30.39 in 10.0 mi ENE 5.8 mph - N/A   Overcast
2:15 PM 73.4 °F 46.4 °F 38% 30.39 in 10.0 mi Calm Calm - N/A   Overcast
2:35 PM 73.4 °F 5.0 °F 7% 30.39 in 10.0 mi East 5.8 mph - N/A   Overcast
2:55 PM 71.6 °F 12.2 °F 10% 30.39 in 10.0 mi East 3.5 mph - N/A   Overcast
3:15 PM 75.2 °F 15.8 °F 11% 30.38 in 10.0 mi East 4.6 mph - N/A   Overcast
3:35 PM 73.4 °F 12.2 °F 10% 30.38 in 10.0 mi East 3.5 mph - N/A   Overcast
3:55 PM 73.4 °F 17.6 °F 12% 30.38 in 10.0 mi ESE 5.8 mph - N/A   Overcast
4:15 PM 73.4 °F 23.0 °F 15% 30.39 in 10.0 mi SE 9.2 mph - N/A   Overcast
4:35 PM 71.6 °F 19.4 °F 14% 30.39 in 10.0 mi East 5.8 mph - N/A   Mostly Cloudy
4:55 PM 69.8 °F 17.6 °F 14% 30.39 in 10.0 mi ESE 6.9 mph - N/A   Mostly Cloudy
5:15 PM 69.8 °F 12.2 °F 11% 30.39 in 10.0 mi ESE 3.5 mph - N/A   Overcast
5:35 PM 68.0 °F 10.4 °F 11% 30.40 in 10.0 mi ESE 5.8 mph - N/A   Overcast
5:55 PM 68.0 °F 12.2 °F 12% 30.40 in 10.0 mi ESE 5.8 mph - N/A   Overcast
6:15 PM 64.4 °F 15.8 °F 15% 30.41 in 10.0 mi Calm Calm - N/A   Overcast
6:35 PM 64.4 °F 15.8 °F 15% 30.41 in 10.0 mi East 6.9 mph - N/A   Overcast
6:55 PM 64.4 °F 23.0 °F 21% 30.41 in 10.0 mi East 3.5 mph - N/A   Overcast
7:15 PM 62.6 °F 37.4 °F 39% 30.41 in 7.0 mi East 4.6 mph - N/A   Overcast
7:35 PM 60.8 °F 48.2 °F 63% 30.41 in 5.0 mi Calm Calm - N/A   Overcast
7:55 PM 60.8 °F 50.0 °F 68% 30.41 in 5.0 mi Calm Calm - 0.01 in   Overcast
8:15 PM 60.8 °F 41.0 °F 48% 30.40 in 4.0 mi Calm Calm - 0.02 in   Overcast
8:35 PM 59.0 °F 48.2 °F 67% 30.40 in 4.0 mi Calm Calm - 0.03 in   Overcast
8:55 PM 59.0 °F 46.4 °F 63% 30.40 in 5.0 mi Calm Calm - 0.04 in   Overcast
9:15 PM 59.0 °F 53.6 °F 82% 30.40 in 5.0 mi Calm Calm - N/A   Overcast
9:35 PM 59.0 °F 48.2 °F 67% 30.39 in 3.0 mi East 3.5 mph - 0.01 in   Overcast
9:55 PM 59.0 °F 46.4 °F 63% 30.39 in 4.0 mi Calm Calm - 0.02 in   Overcast
10:15 PM 59.0 °F 50.0 °F 72% 30.38 in 10.0 mi East 4.6 mph - N/A   Overcast
10:35 PM 59.0 °F 50.0 °F 72% 30.38 in 10.0 mi East 3.5 mph - N/A   Overcast
10:55 PM 59.0 °F 50.0 °F 72% 30.39 in 10.0 mi East 4.6 mph - N/A   Overcast
11:15 PM 59.0 °F 50.0 °F 72% 30.38 in 10.0 mi East 5.8 mph - N/A   Overcast
11:35 PM 57.2 °F 50.0 °F 77% 30.38 in 10.0 mi ESE 3.5 mph - N/A   Overcast
11:55 PM 57.2 °F 50.0 °F 77% 30.37 in 7.0 mi Calm Calm - N/A   Overcast